Manado, Indonesia

1:20 PM WITA on March 28, 2017 (GMT +0800)
Ratulangi

Weather History for WAMM - April, 2014

Change the Weather History Date:

Friday, April 11, 2014

  Actual Average Record
Temperature  
Mean Temperature 80 °F -  
Max Temperature 89 °F - - ()
Min Temperature 72 °F - - ()
Cooling Degree Days 16    
Growing Degree Days 30 (Base 50)    
Moisture  
Dew Point 75 °F    
Average Humidity 80    
Maximum Humidity 100    
Minimum Humidity 61    
Precipitation  
Precipitation 0.01 in - - ()
Sea Level Pressure  
Sea Level Pressure 29.81 in    
Wind  
Wind Speed 3 mph ()    
Max Wind Speed 9 mph    
Max Gust Speed -    
Visibility 6.0 miles    
Events      
T = Trace of Precipitation, MM = Missing Value Source: Averaged Metar Reports

Daily Weather History Graph

Daily Weather History Graph

Search for Another Location

Airport or City:

Trip Planner

Search our weather history database for the weather conditions in past years. The results will help you decide how hot, cold, wet, or windy it might be!

Date:

Astronomy

Apr. 11, 2014 Rise Set
Actual Time 5:37 AM WITA 5:45 PM WITA
Civil Twilight 5:16 AM WITA 6:06 PM WITA
Nautical Twilight 4:52 AM WITA 6:30 PM WITA
Astronomical Twilight 4:27 AM WITA 6:55 PM WITA
Moon 2:40 PM WITA (4/11) 2:19 AM WITA (4/11)
Length of Visible Light 12h 50m
Length of Day
12h 08m
Waxing Gibbous, 83% of the Moon is Illuminated
Apr 11
Waxing Gibbous
Apr 15
Full
Apr 22
Last Quarter
Apr 29
New
May 7
First Quarter

Hourly Weather History & Observations

Time (WITA) Temp. Heat Index Dew Point Humidity Pressure Visibility Wind Dir Wind Speed Gust Speed Precip Events Conditions
2:00 AM 75 °F - 73 °F 91% 29.83 in 6 mi SSE 2.3 mph - -   Partly Cloudy
5:00 AM 73 °F - 72 °F 96% 29.79 in 6 mi NE 2.3 mph - -   Partly Cloudy
5:30 AM 73.4 °F - 71.6 °F 94% 29.80 in 5.6 mi East 1.2 mph - N/A   Partly Cloudy
6:00 AM 71.6 °F - 71.6 °F 100% 29.80 in 5.6 mi NNE 1.2 mph - N/A   Partly Cloudy
6:30 AM 75.2 °F - 71.6 °F 89% 29.83 in 5.6 mi SE 2.3 mph - N/A   Partly Cloudy
7:00 AM 77.0 °F - 73.4 °F 89% 29.83 in 5.6 mi Calm Calm - N/A   Partly Cloudy
7:30 AM 78.8 °F - 75.2 °F 89% 29.86 in 5.6 mi ENE 1.2 mph - N/A   Partly Cloudy
8:00 AM 82 °F - 74 °F 70% 29.85 in 6 mi Calm Calm - -   Scattered Clouds
8:00 AM 82.4 °F 88.2 °F 73.4 °F 74% 29.83 in 6.2 mi Calm Calm - N/A   Partly Cloudy
8:30 AM 84.2 °F 90.9 °F 73.4 °F 70% 29.83 in 6.2 mi WNW 3.5 mph - N/A   Partly Cloudy
9:00 AM 86.0 °F 93.4 °F 73.4 °F 66% 29.83 in 6.2 mi WNW 3.5 mph - N/A   Partly Cloudy
9:30 AM 86.0 °F 95.1 °F 75.2 °F 70% 29.83 in 6.2 mi WNW 4.6 mph - N/A   Partly Cloudy
10:00 AM 86.0 °F 93.4 °F 73.4 °F 66% 29.83 in 6.2 mi WNW 4.6 mph - N/A   Partly Cloudy
10:30 AM 86.0 °F 93.4 °F 73.4 °F 66% 29.83 in 6.2 mi West 5.8 mph - N/A   Partly Cloudy
11:00 AM 86 °F - 74 °F 61% 29.83 in 6 mi WNW 6.9 mph - -   Partly Cloudy
11:00 AM 86.0 °F 95.1 °F 75.2 °F 70% 29.83 in 6.2 mi WNW 6.9 mph - N/A   Partly Cloudy
11:30 AM 87.8 °F 97.6 °F 75.2 °F 66% 29.80 in 6.2 mi West 5.8 mph - N/A   Partly Cloudy
12:00 PM 86.0 °F 93.4 °F 73.4 °F 66% 29.80 in 6.2 mi WNW 8.1 mph - N/A   Partly Cloudy
12:30 PM 87.8 °F 95.6 °F 73.4 °F 62% 29.77 in 6.2 mi West 9.2 mph - N/A   Partly Cloudy
1:00 PM 87.8 °F 97.6 °F 75.2 °F 66% 29.77 in 6.2 mi West 6.9 mph - N/A   Partly Cloudy
1:30 PM 89.6 °F 99.8 °F 75.2 °F 62% 29.77 in 6.2 mi West 6.9 mph - N/A   Partly Cloudy
2:00 PM 87 °F - 76 °F 62% 29.76 in 6 mi West 6.9 mph - -   Partly Cloudy
2:00 PM 89.6 °F 102.2 °F 77.0 °F 66% 29.74 in 6.2 mi West 6.9 mph - N/A   Partly Cloudy
2:30 PM 87.8 °F 95.6 °F 73.4 °F 62% 29.74 in 6.2 mi West 6.9 mph - N/A   Scattered Clouds
3:00 PM 86.0 °F 95.1 °F 75.2 °F 70% 29.74 in 6.2 mi West 5.8 mph - N/A   Scattered Clouds
4:00 PM 84.2 °F 92.3 °F 75.2 °F 74% 29.77 in 6.2 mi West 5.8 mph - N/A   Scattered Clouds
4:30 PM 84.2 °F 94.1 °F 77.0 °F 79% 29.77 in 6.2 mi West 4.6 mph - N/A   Scattered Clouds
5:00 PM 84 °F - 76 °F 72% 29.79 in 6 mi West 4.6 mph - -   Partly Cloudy
5:00 PM 84.2 °F 94.1 °F 77.0 °F 79% 29.77 in 6.2 mi West 4.6 mph - N/A   Scattered Clouds
5:30 PM 82.4 °F 90.9 °F 77.0 °F 84% 29.80 in 6.2 mi West 3.5 mph - N/A   Scattered Clouds
6:00 PM 80.6 °F 87.1 °F 77.0 °F 89% 29.80 in 6.2 mi WNW 2.3 mph - N/A   Scattered Clouds
6:30 PM 80.6 °F 87.1 °F 77.0 °F 89% 29.80 in 6.2 mi WNW 2.3 mph - N/A   Partly Cloudy
7:00 PM 80.6 °F 86.2 °F 75.2 °F 84% 29.83 in 6.2 mi WNW 2.3 mph - N/A   Partly Cloudy
7:30 PM 80.6 °F 86.2 °F 75.2 °F 84% 29.83 in 6.2 mi West 1.2 mph - N/A   Partly Cloudy
8:00 PM 79 °F - 76 °F 89% 29.84 in 6 mi North 1.2 mph - -   Scattered Clouds
8:00 PM 78.8 °F - 77.0 °F 94% 29.83 in 6.2 mi North 2.3 mph - N/A   Scattered Clouds
9:00 PM 77.0 °F - 77.0 °F 100% 29.86 in 5.6 mi NNE 2.3 mph - N/A   Partly Cloudy
9:30 PM 77.0 °F - 77.0 °F 100% 29.86 in 5.6 mi East 1.2 mph - N/A   Scattered Clouds
10:00 PM 77.0 °F - 77.0 °F 100% 29.86 in 5.6 mi NNE 1.2 mph - N/A   Scattered Clouds
10:30 PM 78.8 °F - 77.0 °F 94% 29.86 in 5.6 mi SSE 2.3 mph - N/A   Scattered Clouds
11:00 PM 78 °F - 77 °F 96% 29.88 in 6 mi SE 2.3 mph - -   Partly Cloudy
11:00 PM 77.0 °F - 77.0 °F 100% 29.86 in 5.6 mi ESE 3.5 mph - N/A   Scattered Clouds
11:30 PM 77.0 °F - 75.2 °F 94% 29.86 in 5.6 mi NNE 2.3 mph - N/A   Scattered Clouds